[[{"header":{"parameterUnit":"m.s-1","parameterCategory":1,"la1":30.2991,"la2":30.254,"lo1":-89.0895,"lo2":-89.0444,"dx":0.0017,"dy":0.0017,"nx":28,"ny":28,"refTime":"2022-11-05T15:00:00:Z","depth":0,"parameterNumber":2,"parameterNumberName":"U-component_of_WINDS"},"data":[0,0,0,0,0,0,0,0,0,0,0,0,0,0,0,0,0,0,0,0,0,0,0,0,0,0,0,0,0,0,0,0,0,0,0,0,0,0,0,0,0,0,0,0,0,0,0,0,0,0,0,0,0,0,0,0,0,0,-0.8439,-0.844,0,-0.8536,-0.8537,-0.8538,-0.8557,-0.8557,-0.8556,-0.8555,-0.8654,-0.8657,-0.8661,0,0,0,0,0,0,0,0,0,0,0,0,0,-0.8271,-0.8274,-0.8439,-0.844,-0.8442,-0.8536,-0.8537,-0.8538,-0.8557,-0.8556,-0.8556,-0.8555,-0.8653,-0.8657,-0.8661,0,0,0,0,0,0,0,0,0,0,0,0,0,-0.8354,-0.8275,-0.8439,-0.8462,-0.8465,-0.8535,-0.8537,-0.8539,-0.8558,-0.8556,-0.8555,-0.8554,-0.8652,-0.8657,-0.8662,-0.8715,0,0,-0.8677,-0.8679,0,0,0,0,0,0,0,0,-0.8349,-0.836,-0.8458,-0.8461,-0.8464,-0.8533,-0.8514,-0.8598,-0.8558,-0.8523,-0.8555,-0.8554,-0.8615,-0.8623,-0.8643,-0.8719,-0.8724,-0.8677,-0.868,-0.8682,-0.8684,0,0,0,0,0,0,0,-0.8343,-0.8356,-0.8477,-0.8459,-0.8463,-0.8468,-0.8479,-0.853,-0.8574,-0.8526,-0.8527,-0.8538,-0.8616,-0.8639,-0.8646,-0.8725,-0.8677,-0.8682,-0.8685,-0.8687,-0.885,-0.8851,0,0,0,0,0,0,-0.8333,-0.8351,-0.8474,-0.848,-0.8403,-0.8472,-0.8484,-0.8512,-0.8573,-0.8582,-0.8539,-0.8539,-0.8631,-0.864,-0.8649,-0.8716,-0.8682,-0.8687,-0.869,-0.8848,-0.885,-0.8851,0,0,0,0,0,0,-0.833,-0.8344,-0.847,-0.8416,-0.8432,-0.8476,-0.8508,-0.8515,-0.8537,-0.8584,-0.8592,-0.8554,-0.863,-0.8642,-0.8698,-0.872,-0.8689,-0.8694,-0.8847,-0.8849,-0.8851,-0.8849,0,0,0,0,0,0,-0.8325,-0.8343,-0.8363,-0.8416,-0.8435,-0.8518,-0.8509,-0.8518,-0.8546,-0.8546,-0.8599,-0.8607,-0.863,-0.8691,-0.8703,-0.8726,-0.8698,-0.8845,-0.8848,-0.885,-0.8848,-0.8851,-0.8854,0,0,0,0,0,-0.8319,-0.8359,-0.8364,-0.8379,-0.8462,-0.8519,-0.853,-0.8555,-0.8547,-0.8568,-0.8598,-0.8605,-0.8715,-0.8696,-0.8711,-0.8735,-0.8844,-0.8847,-0.885,-0.8846,-0.885,-0.8854,0,0,0,0,0,0,-0.8308,-0.8367,-0.8373,-0.8432,-0.847,-0.8522,-0.855,-0.8559,-0.8601,-0.8599,-0.8629,-0.8641,-0.8695,-0.8721,-0.8699,-0.879,-0.8779,-0.8785,-0.8771,-0.8776,-0.8779,-0.8772,-0.8702,0,0,0,0,0,-0.8312,-0.8354,-0.8403,-0.845,-0.8469,-0.8506,-0.8532,-0.8548,-0.8589,-0.8605,-0.8639,-0.8679,-0.8722,-0.875,-0.8793,-0.8851,-0.8863,-0.8875,-0.8878,-0.888,-0.8885,-0.8918,-0.8924,-0.8861,-0.8861,-0.8861,0,0,-0.8322,-0.8359,-0.8384,-0.8449,-0.8481,-0.8523,-0.852,-0.8564,-0.8596,-0.8612,-0.8667,-0.8693,-0.8739,-0.8797,-0.8824,-0.882,-0.8905,-0.8884,-0.8886,-0.889,-0.8922,-0.8928,-0.8933,-0.8863,-0.8863,-0.8863,0,0,-0.8362,-0.8394,-0.8437,-0.8469,-0.8516,-0.8541,-0.8551,-0.8601,-0.8619,-0.8675,-0.8688,-0.8726,-0.88,-0.8832,-0.8858,-0.8909,-0.8917,-0.8922,-0.8938,-0.897,-0.8975,-0.8979,-0.8998,-0.9004,-0.8927,-0.8927,-0.8927,0,-0.8368,-0.8432,-0.8458,-0.8502,-0.853,-0.8547,-0.859,-0.862,-0.8679,-0.8698,-0.8692,-0.8786,-0.8818,-0.8883,-0.8895,-0.8916,-0.8928,-0.8916,-0.8972,-0.8977,-0.8982,-0.8999,-0.9006,-0.8927,-0.8927,-0.8927,-0.8927,0,-0.8437,-0.8481,-0.851,-0.8567,-0.8598,-0.8642,-0.8674,-0.8703,-0.8716,-0.8741,-0.8797,-0.8836,-0.8887,-0.8903,-0.8917,-0.8971,-0.8966,-0.8966,-0.8956,-0.8987,-0.9005,-0.9012,-0.8927,-0.8927,-0.8927,-0.8927,0,0,-0.8474,-0.8544,-0.8554,-0.858,-0.8633,-0.8668,-0.8712,-0.8761,-0.8785,-0.8825,-0.8863,-0.8925,-0.8925,-0.8955,-0.8972,-0.8999,-0.9037,-0.8996,-0.8997,-0.9002,-0.9099,-0.9099,-0.9106,-0.9043,-0.9044,-0.9045,-0.9095,0,-0.852,-0.86,-0.8624,-0.869,-0.8731,-0.8747,-0.8786,-0.8823,-0.8847,-0.8885,-0.8911,-0.8955,-0.8951,-0.8969,-0.8997,-0.9027,-0.9057,-0.9023,-0.9078,-0.908,-0.9067,-0.9115,-0.9116,-0.9161,-0.9102,-0.9103,-0.9104,0,-0.8585,-0.8626,-0.8696,-0.8744,-0.8763,-0.8797,-0.8844,-0.888,-0.8922,-0.8938,-0.897,-0.8985,-0.9032,-0.9018,-0.9083,-0.9059,-0.9083,-0.9101,-0.9103,-0.911,-0.9094,-0.9123,-0.9176,-0.9183,-0.9115,-0.9114,-0.9113,0,-0.8605,-0.8677,-0.8729,-0.8751,-0.8808,-0.8831,-0.8856,-0.8897,-0.8925,-0.8966,-0.8985,-0.903,-0.9056,-0.9091,-0.9117,-0.9105,-0.918,-0.9168,-0.9194,-0.9193,-0.9209,-0.9208,-0.9267,-0.9224,-0.9224,-0.9224,-0.9224,0,-0.8654,-0.8697,-0.8739,-0.8771,-0.8819,-0.8846,-0.8893,-0.8918,-0.8955,-0.8992,-0.9008,-0.9042,-0.9075,-0.9114,-0.9135,-0.9185,-0.9196,-0.921,-0.9215,-0.9209,-0.9207,-0.9225,-0.9223,-0.9226,-0.9225,-0.9225,-0.9224,0,-0.8685,-0.8715,-0.8772,-0.8821,-0.8834,-0.8868,-0.891,-0.8941,-0.8966,-0.9012,-0.9025,-0.9063,-0.9109,-0.9139,-0.9198,-0.9212,-0.9267,-0.9271,-0.9253,-0.9256,-0.928,-0.9277,-0.9352,-0.9364,-0.9313,-0.9313,-0.9314,0,-0.8715,-0.8748,-0.88,-0.8826,-0.8851,-0.8893,-0.8921,-0.8949,-0.8978,-0.9028,-0.9053,-0.9101,-0.914,-0.9213,-0.9246,-0.9292,-0.9297,-0.932,-0.9304,-0.9297,-0.9298,-0.9296,-0.9299,-0.9323,-0.9324,-0.9324,-0.9324,0,-0.8765,-0.8778,-0.8818,-0.8863,-0.8897,-0.8934,-0.8971,-0.8991,-0.9026,-0.9057,-0.9105,-0.9135,-0.9195,-0.9242,-0.929,-0.9316,-0.9326,-0.9329,-0.9337,-0.9331,-0.9319,-0.9326,-0.9261,-0.9327,-0.9327,-0.9327,-0.9326,-0.9326,-0.8796,-0.8826,-0.8868,-0.8912,-0.8943,-0.8977,-0.9009,-0.9037,-0.9077,-0.9128,-0.9142,-0.9191,-0.9232,-0.9298,-0.9324,-0.9363,-0.936,-0.9372,-0.9376,-0.9378,-0.9379,-0.9313,-0.9372,-0.9372,-0.9372,-0.9372,-0.9372,0,-0.8847,-0.8875,-0.8915,-0.8966,-0.9001,-0.9007,-0.9048,-0.9077,-0.912,-0.9157,-0.9196,-0.925,-0.9295,-0.9331,-0.9378,-0.9402,-0.9408,-0.9414,-0.9412,-0.9418,-0.9378,-0.9367,-0.9408,-0.9408,-0.9408,-0.9408,-0.9408,-0.9408,-0.8878,-0.8929,-0.8947,-0.9013,-0.904,-0.9089,-0.9112,-0.9143,-0.9173,-0.9233,-0.9271,-0.9294,-0.9331,-0.938,-0.9421,-0.9431,-0.9447,-0.9452,-0.9463,-0.9425,-0.9421,-0.9417,-0.9406,-0.9455,-0.9455,-0.9499,-0.95,-0.95]},{"header":{"parameterUnit":"m.s-1","parameterCategory":1,"la1":30.2991,"la2":30.254,"lo1":-89.0895,"lo2":-89.0444,"dx":0.0017,"dy":0.0017,"nx":28,"ny":28,"refTime":"2022-11-05T15:00:00:Z","depth":0,"parameterNumber":3,"parameterNumberName":"V-component_of_WINDS"},"data":[0,0,0,0,0,0,0,0,0,0,0,0,0,0,0,0,0,0,0,0,0,0,0,0,0,0,0,0,0,0,0,0,0,0,0,0,0,0,0,0,0,0,0,0,0,0,0,0,0,0,0,0,0,0,0,0,0,0,-2.1769,-2.1769,0,-2.1778,-2.1779,-2.1779,-2.1741,-2.174,-2.1739,-2.1738,-2.1746,-2.1747,-2.1748,0,0,0,0,0,0,0,0,0,0,0,0,0,-2.1716,-2.1717,-2.1769,-2.1769,-2.1769,-2.1778,-2.1779,-2.1779,-2.1741,-2.174,-2.1739,-2.1737,-2.1745,-2.1747,-2.1748,0,0,0,0,0,0,0,0,0,0,0,0,0,-2.1734,-2.1718,-2.1769,-2.1752,-2.175,-2.1778,-2.1779,-2.1779,-2.1742,-2.174,-2.1738,-2.1737,-2.1745,-2.1747,-2.1749,-2.1793,0,0,-2.1754,-2.1755,0,0,0,0,0,0,0,0,-2.1733,-2.1736,-2.1754,-2.1753,-2.1751,-2.1757,-2.1763,-2.1783,-2.1742,-2.1745,-2.1738,-2.1736,-2.1751,-2.1752,-2.1757,-2.1793,-2.1794,-2.1754,-2.1755,-2.1756,-2.1757,0,0,0,0,0,0,0,-2.1732,-2.1735,-2.1773,-2.1754,-2.1753,-2.1743,-2.1744,-2.1767,-2.1757,-2.1744,-2.1742,-2.1744,-2.175,-2.1756,-2.1757,-2.1794,-2.1754,-2.1756,-2.1757,-2.1758,-2.1867,-2.1869,0,0,0,0,0,0,-2.1733,-2.1734,-2.1772,-2.1773,-2.1738,-2.1745,-2.1746,-2.1757,-2.1757,-2.1755,-2.1745,-2.1742,-2.1753,-2.1755,-2.1757,-2.181,-2.1756,-2.1758,-2.1759,-2.1865,-2.1868,-2.1869,0,0,0,0,0,0,-2.1732,-2.1737,-2.1772,-2.1753,-2.1757,-2.1748,-2.176,-2.1758,-2.1764,-2.1757,-2.1755,-2.1753,-2.1752,-2.1755,-2.1785,-2.1809,-2.1759,-2.1761,-2.1863,-2.1866,-2.1869,-2.1914,0,0,0,0,0,0,-2.1731,-2.1737,-2.1754,-2.1754,-2.1758,-2.18,-2.1762,-2.1759,-2.1767,-2.1763,-2.1764,-2.1762,-2.1751,-2.1782,-2.1787,-2.1811,-2.1762,-2.1861,-2.1864,-2.1868,-2.1911,-2.1918,-2.1925,0,0,0,0,0,-2.1729,-2.1766,-2.1755,-2.176,-2.1779,-2.1801,-2.1803,-2.179,-2.177,-2.1787,-2.1782,-2.1762,-2.1806,-2.1785,-2.179,-2.1816,-2.1859,-2.1863,-2.1867,-2.1907,-2.1917,-2.1925,0,0,0,0,0,0,-2.1768,-2.1765,-2.1753,-2.1791,-2.1797,-2.1795,-2.1816,-2.18,-2.1811,-2.1807,-2.1789,-2.179,-2.1823,-2.1822,-2.1799,-2.1859,-2.1829,-2.1834,-2.1858,-2.1867,-2.1874,-2.1873,-2.1763,0,0,0,0,0,-2.1781,-2.18,-2.1796,-2.183,-2.1834,-2.1825,-2.1834,-2.1823,-2.1828,-2.1829,-2.1827,-2.1832,-2.1847,-2.1857,-2.187,-2.1911,-2.191,-2.193,-2.1937,-2.1943,-2.1948,-2.1969,-2.1978,-2.1883,-2.1883,-2.1883,0,0,-2.1809,-2.1809,-2.1822,-2.1838,-2.1841,-2.1861,-2.1827,-2.1848,-2.1862,-2.1832,-2.1861,-2.1859,-2.1863,-2.1899,-2.1915,-2.19,-2.1974,-2.1948,-2.1953,-2.1955,-2.1974,-2.1984,-2.1992,-2.1885,-2.1885,-2.1885,0,0,-2.1868,-2.1871,-2.1899,-2.1903,-2.1909,-2.1903,-2.191,-2.191,-2.1908,-2.1937,-2.1915,-2.1931,-2.1957,-2.1961,-2.1966,-2.2028,-2.201,-2.2033,-2.207,-2.2091,-2.2098,-2.2105,-2.2127,-2.2135,-2.2037,-2.2037,-2.2037,0,-2.1901,-2.193,-2.1916,-2.1939,-2.1947,-2.1922,-2.1951,-2.1955,-2.1964,-2.197,-2.1953,-2.1985,-2.1986,-2.2022,-2.2038,-2.2043,-2.205,-2.2032,-2.2099,-2.2105,-2.2111,-2.2132,-2.214,-2.204,-2.204,-2.2039,-2.2039,0,-2.197,-2.199,-2.2012,-2.2023,-2.2033,-2.2059,-2.2049,-2.2061,-2.205,-2.2045,-2.2074,-2.2075,-2.2088,-2.2095,-2.2084,-2.213,-2.2121,-2.2102,-2.2071,-2.2123,-2.2142,-2.215,-2.2044,-2.2043,-2.2042,-2.2041,0,0,-2.2053,-2.2057,-2.2065,-2.207,-2.2074,-2.2089,-2.2114,-2.2128,-2.2138,-2.2146,-2.2166,-2.2189,-2.2171,-2.2177,-2.2166,-2.2185,-2.2234,-2.2164,-2.2163,-2.2177,-2.2285,-2.2299,-2.2308,-2.2223,-2.2224,-2.2225,-2.2284,0,-2.2111,-2.2155,-2.2144,-2.2186,-2.2205,-2.2182,-2.2203,-2.2208,-2.2205,-2.2219,-2.2215,-2.2232,-2.2207,-2.2211,-2.2229,-2.2225,-2.2256,-2.222,-2.2241,-2.2242,-2.224,-2.2318,-2.2333,-2.2389,-2.2292,-2.2293,-2.2294,0,-2.2185,-2.2196,-2.2241,-2.2244,-2.2251,-2.2271,-2.2282,-2.2297,-2.2302,-2.2298,-2.2306,-2.2291,-2.2315,-2.2285,-2.2318,-2.2294,-2.2302,-2.2301,-2.2303,-2.2304,-2.2271,-2.2321,-2.2407,-2.2415,-2.2306,-2.2305,-2.2304,0,-2.2241,-2.2268,-2.2298,-2.2303,-2.2306,-2.2321,-2.2322,-2.2326,-2.2335,-2.2345,-2.2351,-2.2363,-2.237,-2.238,-2.2369,-2.2348,-2.2403,-2.2372,-2.24,-2.2401,-2.2412,-2.2412,-2.25,-2.2418,-2.2418,-2.2418,-2.2418,0,-2.2307,-2.2336,-2.2324,-2.2342,-2.2374,-2.236,-2.2391,-2.239,-2.2394,-2.2411,-2.2392,-2.2409,-2.2394,-2.2409,-2.2401,-2.2429,-2.2432,-2.2429,-2.2427,-2.2431,-2.2431,-2.2436,-2.2431,-2.242,-2.2419,-2.2419,-2.2419,0,-2.2375,-2.2368,-2.24,-2.2401,-2.2402,-2.2425,-2.2425,-2.2442,-2.2438,-2.246,-2.2465,-2.2458,-2.2475,-2.2465,-2.2482,-2.2477,-2.2514,-2.2506,-2.2512,-2.251,-2.2538,-2.2536,-2.2632,-2.2644,-2.2555,-2.2556,-2.2556,0,-2.2418,-2.2439,-2.2443,-2.2454,-2.2457,-2.2475,-2.2485,-2.2472,-2.2483,-2.2491,-2.2507,-2.2523,-2.2535,-2.2563,-2.2559,-2.2572,-2.2564,-2.2597,-2.2566,-2.257,-2.2565,-2.2563,-2.2565,-2.2603,-2.2604,-2.2605,-2.2606,0,-2.2494,-2.249,-2.2504,-2.2519,-2.2531,-2.2541,-2.2549,-2.2559,-2.2547,-2.256,-2.2578,-2.2587,-2.2606,-2.2621,-2.2633,-2.2634,-2.2618,-2.2616,-2.2623,-2.2627,-2.263,-2.2629,-2.2529,-2.2613,-2.2613,-2.2612,-2.2612,-2.2611,-2.255,-2.2568,-2.2574,-2.2591,-2.2597,-2.2605,-2.2622,-2.262,-2.2635,-2.2649,-2.2641,-2.2662,-2.2666,-2.268,-2.2684,-2.27,-2.2686,-2.2697,-2.2699,-2.2702,-2.2706,-2.2628,-2.2702,-2.2701,-2.2701,-2.2701,-2.2701,0,-2.2625,-2.2628,-2.2644,-2.2657,-2.2671,-2.2656,-2.2664,-2.2676,-2.2696,-2.2702,-2.2714,-2.2735,-2.275,-2.2748,-2.2762,-2.2775,-2.2768,-2.2779,-2.2778,-2.2778,-2.2717,-2.2709,-2.2785,-2.2785,-2.2785,-2.2785,-2.2785,-2.2784,-2.2665,-2.2696,-2.2692,-2.2725,-2.2727,-2.2748,-2.2755,-2.2762,-2.2767,-2.2792,-2.2805,-2.2803,-2.2806,-2.282,-2.2834,-2.2832,-2.2838,-2.2852,-2.2848,-2.2791,-2.2783,-2.2775,-2.2767,-2.2854,-2.2854,-2.2908,-2.2909,-2.2909]}]]